<?xml version="1.0" encoding="UTF-8" standalone="no" ?>
<gpx xmlns="http://www.topografix.com/GPX/1/1" xmlns:xsi="http://www.w3.org/2001/XMLSchema-instance" xsi:schemaLocation="http://www.topografix.com/GPX/1/1 http://www.topografix.com/GPX/1/1/gpx.xsd" version="1.1" creator="VisuGPX - https://www.visugpx.com">
  <metadata>
    <name>Chemin de Stevenson</name>
  </metadata>
  <wpt lat="44.93307" lon="3.99991">
    <ele>929.5</ele>
  </wpt>
  <wpt lat="44.89138" lon="3.79526">
    <ele>1214</ele>
  </wpt>
  <wpt lat="44.64763" lon="3.80314">
    <ele>1118.4</ele>
  </wpt>
  <wpt lat="44.59197" lon="3.90599">
    <ele>1015.5</ele>
  </wpt>
  <wpt lat="44.51796" lon="3.7568">
    <ele>1219.7</ele>
  </wpt>
  <wpt lat="44.40347" lon="3.7465">
    <ele>1222.9</ele>
  </wpt>
  <wpt lat="44.34768" lon="3.62009">
    <ele>608.9</ele>
  </wpt>
  <wpt lat="44.27163" lon="3.73066">
    <ele>696.9</ele>
  </wpt>
  <wpt lat="44.18323" lon="3.83528">
    <ele>268.1</ele>
  </wpt>
  <wpt lat="44.10137" lon="3.89429">
    <ele>182.3</ele>
  </wpt>
  <wpt lat="44.12715" lon="4.08557">
    <ele>132.7</ele>
  </wpt>
  <wpt lat="45.04544" lon="3.89068">
    <ele>614.6</ele>
  </wpt>
  <wpt lat="44.93307" lon="3.99991">
    <ele>929.5</ele>
  </wpt>
  <wpt lat="44.89138" lon="3.79526">
    <ele>1214</ele>
  </wpt>
  <wpt lat="44.64763" lon="3.80314">
    <ele>1118.4</ele>
  </wpt>
  <wpt lat="44.59197" lon="3.90599">
    <ele>1015.5</ele>
  </wpt>
  <wpt lat="44.51796" lon="3.75678">
    <ele>1220.1</ele>
  </wpt>
  <wpt lat="44.40347" lon="3.7465">
    <ele>1222.9</ele>
  </wpt>
  <wpt lat="44.34768" lon="3.62009">
    <ele>608.9</ele>
  </wpt>
  <wpt lat="44.27163" lon="3.73066">
    <ele>696.9</ele>
  </wpt>
  <wpt lat="44.18323" lon="3.83528">
    <ele>268.1</ele>
  </wpt>
  <wpt lat="44.10137" lon="3.89429">
    <ele>182.3</ele>
  </wpt>
  <wpt lat="44.12715" lon="4.08557">
    <ele>132.7</ele>
  </wpt>
  <wpt lat="45.04544" lon="3.89068">
    <ele>614.6</ele>
  </wpt>
  <wpt lat="44.76944" lon="3.88282">
    <ele>1150.3</ele>
  </wpt>
  <trk>
    <name><![CDATA[16 juil]]></name>
    <extensions>
      <line xmlns="http://www.topografix.com/GPX/gpx_style/0/2">
        <color>ff0000</color>
        <opacity>1</opacity>
        <width>3</width>
      </line>
    </extensions>
    <trkseg>
      <trkpt lat="45.04552" lon="3.89057">
        <ele>619.9</ele>
      </trkpt>
      <trkpt lat="45.04552" lon="3.89057">
        <ele>619.9</ele>
      </trkpt>
      <trkpt lat="45.04552" lon="3.89057">
        <ele>619.9</ele>
      </trkpt>
      <trkpt lat="45.04552" lon="3.89057">
        <ele>619.9</ele>
      </trkpt>
      <trkpt lat="45.04552" lon="3.89057">
        <ele>619.9</ele>
      </trkpt>
      <trkpt lat="45.04552" lon="3.89057">
        <ele>619.9</ele>
      </trkpt>
      <trkpt lat="45.04552" lon="3.89057">
        <ele>619.9</ele>
      </trkpt>
      <trkpt lat="45.04552" lon="3.89057">
        <ele>619.9</ele>
      </trkpt>
      <trkpt lat="45.04552" lon="3.89057">
        <ele>619.9</ele>
      </trkpt>
      <trkpt lat="45.04466" lon="3.88978">
        <ele>624</ele>
      </trkpt>
      <trkpt lat="45.04378" lon="3.88913">
        <ele>625.2</ele>
      </trkpt>
      <trkpt lat="45.04328" lon="3.8889">
        <ele>624</ele>
      </trkpt>
      <trkpt lat="45.04266" lon="3.88913">
        <ele>626</ele>
      </trkpt>
      <trkpt lat="45.0416" lon="3.88855">
        <ele>624.9</ele>
      </trkpt>
      <trkpt lat="45.04115" lon="3.88851">
        <ele>626.2</ele>
      </trkpt>
      <trkpt lat="45.04108" lon="3.88948">
        <ele>629.61</ele>
        <time>2016-06-07T16:53:13Z</time>
      </trkpt>
      <trkpt lat="45.04126" lon="3.89069">
        <ele>637.66</ele>
        <time>2016-06-07T16:53:33Z</time>
      </trkpt>
      <trkpt lat="45.04152" lon="3.89177">
        <ele>643.951</ele>
        <time>2016-06-07T16:53:53Z</time>
      </trkpt>
      <trkpt lat="45.04081" lon="3.89258">
        <ele>654.463</ele>
        <time>2016-06-07T16:54:13Z</time>
      </trkpt>
      <trkpt lat="45.04044" lon="3.89336">
        <ele>660.044</ele>
        <time>2016-06-07T16:54:33Z</time>
      </trkpt>
      <trkpt lat="45.04029" lon="3.89438">
        <ele>669.218</ele>
        <time>2016-06-07T16:54:53Z</time>
      </trkpt>
      <trkpt lat="45.03995" lon="3.89564">
        <ele>673.908</ele>
        <time>2016-06-07T16:55:13Z</time>
      </trkpt>
      <trkpt lat="45.03939" lon="3.89601">
        <ele>684.399</ele>
        <time>2016-06-07T16:55:33Z</time>
      </trkpt>
      <trkpt lat="45.03877" lon="3.89677">
        <ele>696.03</ele>
        <time>2016-06-07T16:55:53Z</time>
      </trkpt>
      <trkpt lat="45.03872" lon="3.89703">
        <ele>699.151</ele>
        <time>2016-06-07T16:56:13Z</time>
      </trkpt>
      <trkpt lat="45.03764" lon="3.89698">
        <ele>703.829</ele>
        <time>2016-06-07T16:56:33Z</time>
      </trkpt>
      <trkpt lat="45.03754" lon="3.89709">
        <ele>706.417</ele>
        <time>2016-06-07T16:56:53Z</time>
      </trkpt>
      <trkpt lat="45.03747" lon="3.89735">
        <ele>708.419</ele>
        <time>2016-06-07T16:57:13Z</time>
      </trkpt>
      <trkpt lat="45.03718" lon="3.89768">
        <ele>711.699</ele>
        <time>2016-06-07T16:57:33Z</time>
      </trkpt>
      <trkpt lat="45.03673" lon="3.898">
        <ele>724.09</ele>
        <time>2016-06-07T16:57:53Z</time>
      </trkpt>
      <trkpt lat="45.03606" lon="3.89862">
        <ele>741.652</ele>
        <time>2016-06-07T16:58:13Z</time>
      </trkpt>
      <trkpt lat="45.03567" lon="3.89907">
        <ele>749.153</ele>
        <time>2016-06-07T16:58:33Z</time>
      </trkpt>
      <trkpt lat="45.03554" lon="3.89934">
        <ele>754.008</ele>
        <time>2016-06-07T16:58:53Z</time>
      </trkpt>
      <trkpt lat="45.03541" lon="3.89997">
        <ele>757.608</ele>
        <time>2016-06-07T16:59:13Z</time>
      </trkpt>
      <trkpt lat="45.0353" lon="3.90021">
        <ele>761.878</ele>
        <time>2016-06-07T16:59:33Z</time>
      </trkpt>
      <trkpt lat="45.03529" lon="3.9004">
        <ele>763.589</ele>
        <time>2016-06-07T16:59:53Z</time>
      </trkpt>
      <trkpt lat="45.03497" lon="3.9007">
        <ele>772.78</ele>
        <time>2016-06-07T17:00:13Z</time>
      </trkpt>
      <trkpt lat="45.03483" lon="3.90116">
        <ele>777.848</ele>
        <time>2016-06-07T17:00:33Z</time>
      </trkpt>
      <trkpt lat="45.03367" lon="3.90157">
        <ele>780.036</ele>
        <time>2016-06-07T17:00:53Z</time>
      </trkpt>
      <trkpt lat="45.03307" lon="3.90205">
        <ele>776.818</ele>
        <time>2016-06-07T17:01:13Z</time>
      </trkpt>
      <trkpt lat="45.03277" lon="3.90186">
        <ele>774.258</ele>
        <time>2016-06-07T17:01:33Z</time>
      </trkpt>
      <trkpt lat="45.03264" lon="3.90175">
        <ele>773.169</ele>
        <time>2016-06-07T17:01:53Z</time>
      </trkpt>
      <trkpt lat="45.03247" lon="3.90178">
        <ele>770.828</ele>
        <time>2016-06-07T17:02:13Z</time>
      </trkpt>
      <trkpt lat="45.03233" lon="3.90186">
        <ele>768.289</ele>
        <time>2016-06-07T17:02:33Z</time>
      </trkpt>
      <trkpt lat="45.03219" lon="3.90212">
        <ele>764.217</ele>
        <time>2016-06-07T17:02:53Z</time>
      </trkpt>
      <trkpt lat="45.03217" lon="3.90242">
        <ele>761.508</ele>
        <time>2016-06-07T17:03:13Z</time>
      </trkpt>
      <trkpt lat="45.03209" lon="3.90257">
        <ele>758.635</ele>
        <time>2016-06-07T17:03:33Z</time>
      </trkpt>
      <trkpt lat="45.03165" lon="3.90266">
        <ele>754.426</ele>
        <time>2016-06-07T17:03:53Z</time>
      </trkpt>
      <trkpt lat="45.03153" lon="3.90282">
        <ele>753.747</ele>
        <time>2016-06-07T17:04:13Z</time>
      </trkpt>
      <trkpt lat="45.03152" lon="3.90308">
        <ele>752.045</ele>
        <time>2016-06-07T17:04:33Z</time>
      </trkpt>
      <trkpt lat="45.03173" lon="3.90468">
        <ele>749.373</ele>
        <time>2016-06-07T17:04:53Z</time>
      </trkpt>
      <trkpt lat="45.03171" lon="3.90542">
        <ele>746.865</ele>
        <time>2016-06-07T17:05:13Z</time>
      </trkpt>
      <trkpt lat="45.03114" lon="3.90574">
        <ele>747.8</ele>
      </trkpt>
      <trkpt lat="45.03106" lon="3.90626">
        <ele>751</ele>
      </trkpt>
      <trkpt lat="45.03115" lon="3.90699">
        <ele>755.396</ele>
        <time>2016-06-07T17:05:53Z</time>
      </trkpt>
      <trkpt lat="45.0307" lon="3.90737">
        <ele>755.822</ele>
        <time>2016-06-07T17:06:13Z</time>
      </trkpt>
      <trkpt lat="45.03032" lon="3.90747">
        <ele>758.362</ele>
        <time>2016-06-07T17:06:33Z</time>
      </trkpt>
      <trkpt lat="45.03004" lon="3.90769">
        <ele>761.808</ele>
        <time>2016-06-07T17:06:53Z</time>
      </trkpt>
      <trkpt lat="45.02984" lon="3.90802">
        <ele>765.808</ele>
        <time>2016-06-07T17:07:13Z</time>
      </trkpt>
      <trkpt lat="45.02965" lon="3.90826">
        <ele>769.565</ele>
        <time>2016-06-07T17:07:33Z</time>
      </trkpt>
      <trkpt lat="45.02938" lon="3.90877">
        <ele>779.256</ele>
        <time>2016-06-07T17:07:53Z</time>
      </trkpt>
      <trkpt lat="45.02909" lon="3.90903">
        <ele>786.527</ele>
        <time>2016-06-07T17:08:13Z</time>
      </trkpt>
      <trkpt lat="45.02884" lon="3.90913">
        <ele>791.385</ele>
        <time>2016-06-07T17:08:33Z</time>
      </trkpt>
      <trkpt lat="45.0285" lon="3.90942">
        <ele>798.013</ele>
        <time>2016-06-07T17:08:53Z</time>
      </trkpt>
      <trkpt lat="45.02807" lon="3.90967">
        <ele>805.295</ele>
        <time>2016-06-07T17:09:13Z</time>
      </trkpt>
      <trkpt lat="45.02742" lon="3.90991">
        <ele>810.835</ele>
        <time>2016-06-07T17:09:33Z</time>
      </trkpt>
      <trkpt lat="45.02723" lon="3.91013">
        <ele>814.036</ele>
        <time>2016-06-07T17:09:53Z</time>
      </trkpt>
      <trkpt lat="45.02703" lon="3.91016">
        <ele>814.418</ele>
        <time>2016-06-07T17:10:13Z</time>
      </trkpt>
      <trkpt lat="45.02671" lon="3.91013">
        <ele>814.898</ele>
        <time>2016-06-07T17:10:33Z</time>
      </trkpt>
      <trkpt lat="45.02617" lon="3.91014">
        <ele>817.617</ele>
        <time>2016-06-07T17:10:53Z</time>
      </trkpt>
      <trkpt lat="45.02565" lon="3.91026">
        <ele>822.208</ele>
        <time>2016-06-07T17:11:13Z</time>
      </trkpt>
      <trkpt lat="45.02516" lon="3.91048">
        <ele>825.024</ele>
        <time>2016-06-07T17:11:33Z</time>
      </trkpt>
      <trkpt lat="45.02504" lon="3.91059">
        <ele>825.095</ele>
        <time>2016-06-07T17:11:53Z</time>
      </trkpt>
      <trkpt lat="45.02443" lon="3.91051">
        <ele>826.116</ele>
        <time>2016-06-07T17:12:13Z</time>
      </trkpt>
      <trkpt lat="45.02391" lon="3.91066">
        <ele>829.574</ele>
        <time>2016-06-07T17:12:33Z</time>
      </trkpt>
      <trkpt lat="45.02362" lon="3.91091">
        <ele>830.082</ele>
        <time>2016-06-07T17:12:53Z</time>
      </trkpt>
      <trkpt lat="45.02343" lon="3.91098">
        <ele>830.384</ele>
        <time>2016-06-07T17:13:13Z</time>
      </trkpt>
      <trkpt lat="45.023" lon="3.9113">
        <ele>831.114</ele>
        <time>2016-06-07T17:13:33Z</time>
      </trkpt>
      <trkpt lat="45.02259" lon="3.91148">
        <ele>830.855</ele>
        <time>2016-06-07T17:13:53Z</time>
      </trkpt>
      <trkpt lat="45.02184" lon="3.91204">
        <ele>829.163</ele>
        <time>2016-06-07T17:14:13Z</time>
      </trkpt>
      <trkpt lat="45.02094" lon="3.91332">
        <ele>824.844</ele>
        <time>2016-06-07T17:14:33Z</time>
      </trkpt>
      <trkpt lat="45.02029" lon="3.91338">
        <ele>818.3</ele>
      </trkpt>
      <trkpt lat="45.01988" lon="3.9135">
        <ele>813.908</ele>
        <time>2016-06-07T17:15:13Z</time>
      </trkpt>
      <trkpt lat="45.01883" lon="3.91387">
        <ele>800.999</ele>
        <time>2016-06-07T17:15:33Z</time>
      </trkpt>
      <trkpt lat="45.01808" lon="3.91399">
        <ele>799.09</ele>
        <time>2016-06-07T17:15:53Z</time>
      </trkpt>
      <trkpt lat="45.01768" lon="3.9141">
        <ele>797.231</ele>
        <time>2016-06-07T17:16:13Z</time>
      </trkpt>
      <trkpt lat="45.01728" lon="3.91414">
        <ele>795.299</ele>
        <time>2016-06-07T17:16:33Z</time>
      </trkpt>
      <trkpt lat="45.017" lon="3.91429">
        <ele>794.627</ele>
        <time>2016-06-07T17:16:53Z</time>
      </trkpt>
      <trkpt lat="45.01665" lon="3.91462">
        <ele>793.019</ele>
        <time>2016-06-07T17:17:13Z</time>
      </trkpt>
      <trkpt lat="45.01624" lon="3.91484">
        <ele>790.729</ele>
        <time>2016-06-07T17:17:33Z</time>
      </trkpt>
      <trkpt lat="45.01595" lon="3.91486">
        <ele>790.06</ele>
        <time>2016-06-07T17:17:53Z</time>
      </trkpt>
      <trkpt lat="45.01589" lon="3.91458">
        <ele>788.837</ele>
        <time>2016-06-07T17:18:13Z</time>
      </trkpt>
      <trkpt lat="45.01565" lon="3.91389">
        <ele>786.349</ele>
        <time>2016-06-07T17:18:33Z</time>
      </trkpt>
      <trkpt lat="45.01553" lon="3.91365">
        <ele>786.013</ele>
        <time>2016-06-07T17:18:53Z</time>
      </trkpt>
      <trkpt lat="45.01536" lon="3.91361">
        <ele>786.008</ele>
        <time>2016-06-07T17:19:13Z</time>
      </trkpt>
      <trkpt lat="45.01505" lon="3.91382">
        <ele>786.076</ele>
        <time>2016-06-07T17:19:33Z</time>
      </trkpt>
      <trkpt lat="45.01463" lon="3.91374">
        <ele>784.237</ele>
        <time>2016-06-07T17:19:53Z</time>
      </trkpt>
      <trkpt lat="45.0142" lon="3.91343">
        <ele>783.678</ele>
        <time>2016-06-07T17:20:13Z</time>
      </trkpt>
      <trkpt lat="45.01409" lon="3.9135">
        <ele>783.616</ele>
        <time>2016-06-07T17:20:33Z</time>
      </trkpt>
      <trkpt lat="45.01395" lon="3.91379">
        <ele>784.364</ele>
        <time>2016-06-07T17:20:53Z</time>
      </trkpt>
      <trkpt lat="45.01365" lon="3.91387">
        <ele>784.966</ele>
        <time>2016-06-07T17:21:13Z</time>
      </trkpt>
      <trkpt lat="45.01343" lon="3.91408">
        <ele>784.136</ele>
        <time>2016-06-07T17:21:33Z</time>
      </trkpt>
      <trkpt lat="45.01332" lon="3.91362">
        <ele>784.057</ele>
        <time>2016-06-07T17:21:53Z</time>
      </trkpt>
      <trkpt lat="45.01306" lon="3.91283">
        <ele>788.842</ele>
        <time>2016-06-07T17:22:13Z</time>
      </trkpt>
      <trkpt lat="45.013" lon="3.91234">
        <ele>788.222</ele>
        <time>2016-06-07T17:22:33Z</time>
      </trkpt>
      <trkpt lat="45.01343" lon="3.91008">
        <ele>790.114</ele>
        <time>2016-06-07T17:22:53Z</time>
      </trkpt>
      <trkpt lat="45.01341" lon="3.90938">
        <ele>794.608</ele>
        <time>2016-06-07T17:23:13Z</time>
      </trkpt>
      <trkpt lat="45.0135" lon="3.90898">
        <ele>797.727</ele>
        <time>2016-06-07T17:23:33Z</time>
      </trkpt>
      <trkpt lat="45.01349" lon="3.90881">
        <ele>799.388</ele>
        <time>2016-06-07T17:23:53Z</time>
      </trkpt>
      <trkpt lat="45.01336" lon="3.90866">
        <ele>798.939</ele>
        <time>2016-06-07T17:24:13Z</time>
      </trkpt>
      <trkpt lat="45.01282" lon="3.90757">
        <ele>807.577</ele>
        <time>2016-06-07T17:24:33Z</time>
      </trkpt>
      <trkpt lat="45.01249" lon="3.90705">
        <ele>807.065</ele>
        <time>2016-06-07T17:24:53Z</time>
      </trkpt>
      <trkpt lat="45.01242" lon="3.9067">
        <ele>808.277</ele>
        <time>2016-06-07T17:25:13Z</time>
      </trkpt>
      <trkpt lat="45.01228" lon="3.90678">
        <ele>808.447</ele>
        <time>2016-06-07T17:25:33Z</time>
      </trkpt>
      <trkpt lat="45.01138" lon="3.90785">
        <ele>804.588</ele>
        <time>2016-06-07T17:25:53Z</time>
      </trkpt>
      <trkpt lat="45.01087" lon="3.90907">
        <ele>802.387</ele>
        <time>2016-06-07T17:26:13Z</time>
      </trkpt>
      <trkpt lat="45.01048" lon="3.91014">
        <ele>797.742</ele>
        <time>2016-06-07T17:26:33Z</time>
      </trkpt>
      <trkpt lat="45.01005" lon="3.91091">
        <ele>792.426</ele>
        <time>2016-06-07T17:26:53Z</time>
      </trkpt>
      <trkpt lat="45.00986" lon="3.91108">
        <ele>788.808</ele>
        <time>2016-06-07T17:27:13Z</time>
      </trkpt>
      <trkpt lat="45.00967" lon="3.91106">
        <ele>787.441</ele>
        <time>2016-06-07T17:27:33Z</time>
      </trkpt>
      <trkpt lat="45.00946" lon="3.91095">
        <ele>788.082</ele>
        <time>2016-06-07T17:27:53Z</time>
      </trkpt>
      <trkpt lat="45.00906" lon="3.91074">
        <ele>788.063</ele>
        <time>2016-06-07T17:28:13Z</time>
      </trkpt>
      <trkpt lat="45.00861" lon="3.91062">
        <ele>784.281</ele>
        <time>2016-06-07T17:28:33Z</time>
      </trkpt>
      <trkpt lat="45.0077" lon="3.91062">
        <ele>769.279</ele>
        <time>2016-06-07T17:28:53Z</time>
      </trkpt>
      <trkpt lat="45.00726" lon="3.91075">
        <ele>756.431</ele>
        <time>2016-06-07T17:29:13Z</time>
      </trkpt>
      <trkpt lat="45.0061" lon="3.9119">
        <ele>743.781</ele>
        <time>2016-06-07T17:29:33Z</time>
      </trkpt>
      <trkpt lat="45.0061" lon="3.91221">
        <ele>740.162</ele>
        <time>2016-06-07T17:29:53Z</time>
      </trkpt>
      <trkpt lat="45.00599" lon="3.91234">
        <ele>737.932</ele>
        <time>2016-06-07T17:30:13Z</time>
      </trkpt>
      <trkpt lat="45.00573" lon="3.91239">
        <ele>735.092</ele>
        <time>2016-06-07T17:30:33Z</time>
      </trkpt>
      <trkpt lat="45.00553" lon="3.91236">
        <ele>732.311</ele>
        <time>2016-06-07T17:30:53Z</time>
      </trkpt>
      <trkpt lat="45.00506" lon="3.91266">
        <ele>725.208</ele>
        <time>2016-06-07T17:31:13Z</time>
      </trkpt>
      <trkpt lat="45.0047" lon="3.91307">
        <ele>721.956</ele>
        <time>2016-06-07T17:31:33Z</time>
      </trkpt>
      <trkpt lat="45.00457" lon="3.91302">
        <ele>721.527</ele>
        <time>2016-06-07T17:31:53Z</time>
      </trkpt>
      <trkpt lat="45.00436" lon="3.91273">
        <ele>720.6</ele>
      </trkpt>
      <trkpt lat="45.00412" lon="3.91297">
        <ele>718.996</ele>
        <time>2016-06-07T17:32:33Z</time>
      </trkpt>
      <trkpt lat="45.00384" lon="3.9131">
        <ele>716.044</ele>
        <time>2016-06-07T17:32:53Z</time>
      </trkpt>
      <trkpt lat="45.00365" lon="3.91301">
        <ele>713.636</ele>
        <time>2016-06-07T17:33:13Z</time>
      </trkpt>
      <trkpt lat="45.00347" lon="3.91304">
        <ele>710.576</ele>
        <time>2016-06-07T17:33:33Z</time>
      </trkpt>
      <trkpt lat="45.0032" lon="3.91296">
        <ele>706.647</ele>
        <time>2016-06-07T17:33:53Z</time>
      </trkpt>
      <trkpt lat="45.00307" lon="3.91305">
        <ele>704.235</ele>
        <time>2016-06-07T17:34:13Z</time>
      </trkpt>
      <trkpt lat="45.00307" lon="3.91337">
        <ele>702.386</ele>
        <time>2016-06-07T17:34:33Z</time>
      </trkpt>
      <trkpt lat="45.00314" lon="3.91417">
        <ele>698.214</ele>
        <time>2016-06-07T17:34:53Z</time>
      </trkpt>
      <trkpt lat="45.003" lon="3.91437">
        <ele>694.308</ele>
        <time>2016-06-07T17:35:13Z</time>
      </trkpt>
      <trkpt lat="45.00215" lon="3.915">
        <ele>683.096</ele>
        <time>2016-06-07T17:35:33Z</time>
      </trkpt>
      <trkpt lat="45.00149" lon="3.9154">
        <ele>678.547</ele>
        <time>2016-06-07T17:35:53Z</time>
      </trkpt>
      <trkpt lat="45.00075" lon="3.91578">
        <ele>668.678</ele>
        <time>2016-06-07T17:36:13Z</time>
      </trkpt>
      <trkpt lat="45.00078" lon="3.9159">
        <ele>667.656</ele>
        <time>2016-06-07T17:36:33Z</time>
      </trkpt>
      <trkpt lat="45.001" lon="3.91616">
        <ele>666.864</ele>
        <time>2016-06-07T17:36:53Z</time>
      </trkpt>
      <trkpt lat="45.00108" lon="3.91633">
        <ele>665.526</ele>
        <time>2016-06-07T17:37:13Z</time>
      </trkpt>
      <trkpt lat="45.00101" lon="3.91701">
        <ele>661.026</ele>
        <time>2016-06-07T17:37:33Z</time>
      </trkpt>
      <trkpt lat="44.99969" lon="3.91705">
        <ele>646.827</ele>
        <time>2016-06-07T17:37:53Z</time>
      </trkpt>
      <trkpt lat="44.99942" lon="3.91699">
        <ele>643.398</ele>
        <time>2016-06-07T17:38:13Z</time>
      </trkpt>
      <trkpt lat="44.99919" lon="3.91713">
        <ele>638.815</ele>
        <time>2016-06-07T17:38:33Z</time>
      </trkpt>
      <trkpt lat="44.99886" lon="3.91748">
        <ele>633.426</ele>
        <time>2016-06-07T17:38:53Z</time>
      </trkpt>
      <trkpt lat="44.99874" lon="3.91698">
        <ele>631.908</ele>
        <time>2016-06-07T17:39:13Z</time>
      </trkpt>
      <trkpt lat="44.99748" lon="3.91736">
        <ele>629.312</ele>
        <time>2016-06-07T17:39:33Z</time>
      </trkpt>
      <trkpt lat="44.99716" lon="3.91802">
        <ele>632.263</ele>
        <time>2016-06-07T17:39:53Z</time>
      </trkpt>
      <trkpt lat="44.99683" lon="3.91831">
        <ele>633.094</ele>
        <time>2016-06-07T17:40:13Z</time>
      </trkpt>
      <trkpt lat="44.99636" lon="3.91842">
        <ele>633.032</ele>
        <time>2016-06-07T17:40:33Z</time>
      </trkpt>
      <trkpt lat="44.99571" lon="3.91821">
        <ele>635.34</ele>
        <time>2016-06-07T17:40:53Z</time>
      </trkpt>
      <trkpt lat="44.99491" lon="3.91778">
        <ele>644.932</ele>
        <time>2016-06-07T17:41:13Z</time>
      </trkpt>
      <trkpt lat="44.99472" lon="3.91777">
        <ele>647.182</ele>
        <time>2016-06-07T17:41:33Z</time>
      </trkpt>
      <trkpt lat="44.99462" lon="3.91787">
        <ele>648.413</ele>
        <time>2016-06-07T17:41:53Z</time>
      </trkpt>
      <trkpt lat="44.99437" lon="3.91823">
        <ele>650.134</ele>
        <time>2016-06-07T17:42:13Z</time>
      </trkpt>
      <trkpt lat="44.99365" lon="3.91895">
        <ele>663.855</ele>
        <time>2016-06-07T17:42:33Z</time>
      </trkpt>
      <trkpt lat="44.9932" lon="3.91997">
        <ele>674.31</ele>
        <time>2016-06-07T17:42:53Z</time>
      </trkpt>
      <trkpt lat="44.99273" lon="3.92073">
        <ele>677.408</ele>
        <time>2016-06-07T17:43:13Z</time>
      </trkpt>
      <trkpt lat="44.99179" lon="3.92053">
        <ele>687.466</ele>
        <time>2016-06-07T17:43:33Z</time>
      </trkpt>
      <trkpt lat="44.9916" lon="3.92031">
        <ele>692.497</ele>
        <time>2016-06-07T17:43:53Z</time>
      </trkpt>
      <trkpt lat="44.99132" lon="3.91954">
        <ele>702.338</ele>
        <time>2016-06-07T17:44:13Z</time>
      </trkpt>
      <trkpt lat="44.99066" lon="3.91871">
        <ele>714.596</ele>
        <time>2016-06-07T17:44:33Z</time>
      </trkpt>
      <trkpt lat="44.99058" lon="3.91831">
        <ele>719.674</ele>
        <time>2016-06-07T17:44:53Z</time>
      </trkpt>
      <trkpt lat="44.99076" lon="3.91697">
        <ele>734.136</ele>
        <time>2016-06-07T17:45:13Z</time>
      </trkpt>
      <trkpt lat="44.99028" lon="3.91671">
        <ele>740.576</ele>
        <time>2016-06-07T17:45:33Z</time>
      </trkpt>
      <trkpt lat="44.99029" lon="3.91657">
        <ele>742.077</ele>
        <time>2016-06-07T17:45:53Z</time>
      </trkpt>
      <trkpt lat="44.99093" lon="3.91575">
        <ele>745.042</ele>
        <time>2016-06-07T17:46:13Z</time>
      </trkpt>
      <trkpt lat="44.99091" lon="3.91561">
        <ele>746.222</ele>
        <time>2016-06-07T17:46:33Z</time>
      </trkpt>
      <trkpt lat="44.99" lon="3.91535">
        <ele>759.914</ele>
        <time>2016-06-07T17:46:53Z</time>
      </trkpt>
      <trkpt lat="44.98969" lon="3.91505">
        <ele>767.108</ele>
        <time>2016-06-07T17:47:13Z</time>
      </trkpt>
      <trkpt lat="44.98932" lon="3.91429">
        <ele>776.047</ele>
        <time>2016-06-07T17:47:33Z</time>
      </trkpt>
      <trkpt lat="44.98908" lon="3.91392">
        <ele>776.188</ele>
        <time>2016-06-07T17:47:53Z</time>
      </trkpt>
      <trkpt lat="44.98872" lon="3.91354">
        <ele>775.289</ele>
        <time>2016-06-07T17:48:13Z</time>
      </trkpt>
      <trkpt lat="44.98839" lon="3.91344">
        <ele>777.487</ele>
        <time>2016-06-07T17:48:33Z</time>
      </trkpt>
      <trkpt lat="44.98803" lon="3.91343">
        <ele>782.435</ele>
        <time>2016-06-07T17:48:53Z</time>
      </trkpt>
      <trkpt lat="44.98702" lon="3.9138">
        <ele>789.287</ele>
        <time>2016-06-07T17:49:13Z</time>
      </trkpt>
      <trkpt lat="44.98657" lon="3.91378">
        <ele>792.477</ele>
        <time>2016-06-07T17:49:33Z</time>
      </trkpt>
      <trkpt lat="44.98607" lon="3.91384">
        <ele>801.138</ele>
        <time>2016-06-07T17:49:53Z</time>
      </trkpt>
      <trkpt lat="44.98528" lon="3.91442">
        <ele>809.921</ele>
        <time>2016-06-07T17:50:13Z</time>
      </trkpt>
      <trkpt lat="44.9851" lon="3.91446">
        <ele>811.241</ele>
        <time>2016-06-07T17:50:33Z</time>
      </trkpt>
      <trkpt lat="44.98498" lon="3.91425">
        <ele>812.005</ele>
        <time>2016-06-07T17:50:53Z</time>
      </trkpt>
      <trkpt lat="44.98426" lon="3.91346">
        <ele>808.008</ele>
        <time>2016-06-07T17:51:13Z</time>
      </trkpt>
      <trkpt lat="44.98407" lon="3.9138">
        <ele>808.795</ele>
        <time>2016-06-07T17:51:33Z</time>
      </trkpt>
      <trkpt lat="44.98403" lon="3.9144">
        <ele>810.996</ele>
        <time>2016-06-07T17:51:53Z</time>
      </trkpt>
      <trkpt lat="44.98407" lon="3.9149">
        <ele>812.337</ele>
        <time>2016-06-07T17:52:13Z</time>
      </trkpt>
      <trkpt lat="44.98394" lon="3.91529">
        <ele>813.375</ele>
        <time>2016-06-07T17:52:33Z</time>
      </trkpt>
      <trkpt lat="44.98363" lon="3.9158">
        <ele>816.043</ele>
        <time>2016-06-07T17:52:53Z</time>
      </trkpt>
      <trkpt lat="44.98268" lon="3.91695">
        <ele>822.485</ele>
        <time>2016-06-07T17:53:13Z</time>
      </trkpt>
      <trkpt lat="44.98243" lon="3.91699">
        <ele>826.465</ele>
        <time>2016-06-07T17:53:33Z</time>
      </trkpt>
      <trkpt lat="44.98212" lon="3.91684">
        <ele>831.146</ele>
        <time>2016-06-07T17:53:53Z</time>
      </trkpt>
      <trkpt lat="44.98178" lon="3.91687">
        <ele>833.397</ele>
        <time>2016-06-07T17:54:13Z</time>
      </trkpt>
      <trkpt lat="44.98157" lon="3.91714">
        <ele>835.623</ele>
        <time>2016-06-07T17:54:33Z</time>
      </trkpt>
      <trkpt lat="44.98141" lon="3.91774">
        <ele>839.725</ele>
        <time>2016-06-07T17:54:53Z</time>
      </trkpt>
      <trkpt lat="44.98146" lon="3.91839">
        <ele>839.908</ele>
        <time>2016-06-07T17:55:13Z</time>
      </trkpt>
      <trkpt lat="44.98136" lon="3.91863">
        <ele>842.322</ele>
        <time>2016-06-07T17:55:33Z</time>
      </trkpt>
      <trkpt lat="44.97993" lon="3.92095">
        <ele>855.223</ele>
        <time>2016-06-07T17:55:53Z</time>
      </trkpt>
      <trkpt lat="44.97946" lon="3.92162">
        <ele>858.794</ele>
        <time>2016-06-07T17:56:13Z</time>
      </trkpt>
      <trkpt lat="44.97886" lon="3.92291">
        <ele>868.392</ele>
        <time>2016-06-07T17:56:33Z</time>
      </trkpt>
      <trkpt lat="44.97764" lon="3.92503">
        <ele>882.27</ele>
        <time>2016-06-07T17:56:53Z</time>
      </trkpt>
      <trkpt lat="44.97707" lon="3.92557">
        <ele>886.092</ele>
        <time>2016-06-07T17:57:13Z</time>
      </trkpt>
      <trkpt lat="44.97655" lon="3.92635">
        <ele>890.152</ele>
        <time>2016-06-07T17:57:33Z</time>
      </trkpt>
      <trkpt lat="44.97605" lon="3.92722">
        <ele>887.563</ele>
        <time>2016-06-07T17:57:53Z</time>
      </trkpt>
      <trkpt lat="44.97569" lon="3.92752">
        <ele>886.727</ele>
        <time>2016-06-07T17:58:13Z</time>
      </trkpt>
      <trkpt lat="44.97502" lon="3.92789">
        <ele>883.368</ele>
        <time>2016-06-07T17:58:33Z</time>
      </trkpt>
      <trkpt lat="44.97451" lon="3.92801">
        <ele>879.714</ele>
        <time>2016-06-07T17:58:53Z</time>
      </trkpt>
      <trkpt lat="44.97403" lon="3.92833">
        <ele>882.508</ele>
        <time>2016-06-07T17:59:13Z</time>
      </trkpt>
      <trkpt lat="44.97348" lon="3.92913">
        <ele>878.595</ele>
        <time>2016-06-07T17:59:33Z</time>
      </trkpt>
      <trkpt lat="44.97322" lon="3.92977">
        <ele>878.527</ele>
        <time>2016-06-07T18:00:13Z</time>
      </trkpt>
      <trkpt lat="44.97305" lon="3.93004">
        <ele>879.825</ele>
        <time>2016-06-07T18:00:33Z</time>
      </trkpt>
      <trkpt lat="44.97145" lon="3.93431">
        <ele>885.343</ele>
        <time>2016-06-07T18:00:53Z</time>
      </trkpt>
      <trkpt lat="44.9711" lon="3.93489">
        <ele>884.635</ele>
        <time>2016-06-07T18:01:13Z</time>
      </trkpt>
      <trkpt lat="44.97069" lon="3.93547">
        <ele>884.915</ele>
        <time>2016-06-07T18:01:33Z</time>
      </trkpt>
      <trkpt lat="44.97059" lon="3.93579">
        <ele>887.026</ele>
        <time>2016-06-07T18:01:53Z</time>
      </trkpt>
      <trkpt lat="44.96964" lon="3.93753">
        <ele>887.437</ele>
        <time>2016-06-07T18:02:13Z</time>
      </trkpt>
      <trkpt lat="44.96919" lon="3.93864">
        <ele>886.449</ele>
        <time>2016-06-07T18:02:33Z</time>
      </trkpt>
      <trkpt lat="44.96885" lon="3.93925">
        <ele>885.313</ele>
        <time>2016-06-07T18:02:53Z</time>
      </trkpt>
      <trkpt lat="44.96817" lon="3.94012">
        <ele>891.108</ele>
        <time>2016-06-07T18:03:13Z</time>
      </trkpt>
      <trkpt lat="44.96722" lon="3.94102">
        <ele>889.386</ele>
        <time>2016-06-07T18:03:33Z</time>
      </trkpt>
      <trkpt lat="44.96683" lon="3.94133">
        <ele>889.227</ele>
        <time>2016-06-07T18:03:53Z</time>
      </trkpt>
      <trkpt lat="44.96614" lon="3.9422">
        <ele>888.978</ele>
        <time>2016-06-07T18:04:13Z</time>
      </trkpt>
      <trkpt lat="44.96565" lon="3.94266">
        <ele>891.266</ele>
        <time>2016-06-07T18:04:33Z</time>
      </trkpt>
      <trkpt lat="44.96493" lon="3.94369">
        <ele>890.064</ele>
        <time>2016-06-07T18:04:53Z</time>
      </trkpt>
      <trkpt lat="44.96437" lon="3.94469">
        <ele>890.046</ele>
        <time>2016-06-07T18:05:13Z</time>
      </trkpt>
      <trkpt lat="44.96398" lon="3.94545">
        <ele>889.876</ele>
        <time>2016-06-07T18:05:33Z</time>
      </trkpt>
      <trkpt lat="44.96357" lon="3.94605">
        <ele>886.417</ele>
        <time>2016-06-07T18:05:53Z</time>
      </trkpt>
      <trkpt lat="44.96246" lon="3.94747">
        <ele>890.553</ele>
        <time>2016-06-07T18:06:13Z</time>
      </trkpt>
      <trkpt lat="44.962" lon="3.94827">
        <ele>894.104</ele>
        <time>2016-06-07T18:06:33Z</time>
      </trkpt>
      <trkpt lat="44.96189" lon="3.94872">
        <ele>896.414</ele>
        <time>2016-06-07T18:06:53Z</time>
      </trkpt>
      <trkpt lat="44.96191" lon="3.94947">
        <ele>901.408</ele>
        <time>2016-06-07T18:07:13Z</time>
      </trkpt>
      <trkpt lat="44.96207" lon="3.95062">
        <ele>909.488</ele>
        <time>2016-06-07T18:07:33Z</time>
      </trkpt>
      <trkpt lat="44.96227" lon="3.95539">
        <ele>911.7</ele>
      </trkpt>
      <trkpt lat="44.96249" lon="3.95722">
        <ele>912.38</ele>
        <time>2016-06-07T18:08:13Z</time>
      </trkpt>
      <trkpt lat="44.96258" lon="3.95866">
        <ele>898.968</ele>
        <time>2016-06-07T18:08:33Z</time>
      </trkpt>
      <trkpt lat="44.96227" lon="3.95933">
        <ele>895.196</ele>
        <time>2016-06-07T18:08:53Z</time>
      </trkpt>
      <trkpt lat="44.96182" lon="3.96004">
        <ele>894.288</ele>
        <time>2016-06-07T18:09:13Z</time>
      </trkpt>
      <trkpt lat="44.96132" lon="3.96146">
        <ele>885.998</ele>
        <time>2016-06-07T18:09:33Z</time>
      </trkpt>
      <trkpt lat="44.96119" lon="3.96144">
        <ele>886.959</ele>
        <time>2016-06-07T18:09:53Z</time>
      </trkpt>
      <trkpt lat="44.9609" lon="3.96181">
        <ele>885.923</ele>
        <time>2016-06-07T18:10:13Z</time>
      </trkpt>
      <trkpt lat="44.9605" lon="3.96182">
        <ele>892.883</ele>
        <time>2016-06-07T18:10:33Z</time>
      </trkpt>
      <trkpt lat="44.96022" lon="3.96195">
        <ele>895.611</ele>
        <time>2016-06-07T18:10:53Z</time>
      </trkpt>
      <trkpt lat="44.96006" lon="3.96222">
        <ele>893.908</ele>
        <time>2016-06-07T18:11:13Z</time>
      </trkpt>
      <trkpt lat="44.95984" lon="3.96285">
        <ele>891.255</ele>
        <time>2016-06-07T18:11:33Z</time>
      </trkpt>
      <trkpt lat="44.9593" lon="3.96334">
        <ele>896.056</ele>
        <time>2016-06-07T18:11:53Z</time>
      </trkpt>
      <trkpt lat="44.95907" lon="3.96388">
        <ele>901.137</ele>
        <time>2016-06-07T18:12:13Z</time>
      </trkpt>
      <trkpt lat="44.95889" lon="3.96469">
        <ele>899.145</ele>
        <time>2016-06-07T18:12:33Z</time>
      </trkpt>
      <trkpt lat="44.95827" lon="3.96586">
        <ele>896.483</ele>
        <time>2016-06-07T18:12:53Z</time>
      </trkpt>
      <trkpt lat="44.95743" lon="3.96659">
        <ele>893.675</ele>
        <time>2016-06-07T18:13:13Z</time>
      </trkpt>
      <trkpt lat="44.9571" lon="3.9669">
        <ele>894.755</ele>
        <time>2016-06-07T18:13:33Z</time>
      </trkpt>
      <trkpt lat="44.95672" lon="3.96744">
        <ele>895.736</ele>
        <time>2016-06-07T18:13:53Z</time>
      </trkpt>
      <trkpt lat="44.95564" lon="3.96917">
        <ele>895.791</ele>
        <time>2016-06-07T18:14:13Z</time>
      </trkpt>
      <trkpt lat="44.95552" lon="3.96949">
        <ele>894.281</ele>
        <time>2016-06-07T18:14:33Z</time>
      </trkpt>
      <trkpt lat="44.95543" lon="3.9701">
        <ele>892.619</ele>
        <time>2016-06-07T18:14:53Z</time>
      </trkpt>
      <trkpt lat="44.95535" lon="3.97034">
        <ele>893.508</ele>
        <time>2016-06-07T18:15:13Z</time>
      </trkpt>
      <trkpt lat="44.95489" lon="3.97058">
        <ele>896.292</ele>
        <time>2019-03-25T14:41:51Z</time>
      </trkpt>
      <trkpt lat="44.95444" lon="3.97097">
        <ele>904.043</ele>
        <time>2019-03-25T14:42:11Z</time>
      </trkpt>
      <trkpt lat="44.95336" lon="3.97124">
        <ele>921.434</ele>
        <time>2019-03-25T14:42:31Z</time>
      </trkpt>
      <trkpt lat="44.9534" lon="3.97092">
        <ele>922.522</ele>
        <time>2019-03-25T14:42:51Z</time>
      </trkpt>
      <trkpt lat="44.95271" lon="3.97079">
        <ele>939.92</ele>
        <time>2019-03-25T14:43:11Z</time>
      </trkpt>
      <trkpt lat="44.95136" lon="3.97015">
        <ele>972.772</ele>
        <time>2019-03-25T14:43:31Z</time>
      </trkpt>
      <trkpt lat="44.95052" lon="3.97039">
        <ele>977.112</ele>
        <time>2019-03-25T14:43:51Z</time>
      </trkpt>
      <trkpt lat="44.94945" lon="3.97034">
        <ele>977.213</ele>
        <time>2019-03-25T14:44:11Z</time>
      </trkpt>
      <trkpt lat="44.9485" lon="3.96997">
        <ele>977.582</ele>
        <time>2019-03-25T14:44:31Z</time>
      </trkpt>
      <trkpt lat="44.94773" lon="3.97076">
        <ele>978.743</ele>
        <time>2019-03-25T14:44:51Z</time>
      </trkpt>
      <trkpt lat="44.94786" lon="3.97134">
        <ele>980.817</ele>
        <time>2019-03-25T14:45:11Z</time>
      </trkpt>
      <trkpt lat="44.94736" lon="3.97177">
        <ele>983.708</ele>
        <time>2019-03-25T14:45:31Z</time>
      </trkpt>
      <trkpt lat="44.94698" lon="3.97169">
        <ele>983.181</ele>
        <time>2019-03-25T14:45:51Z</time>
      </trkpt>
      <trkpt lat="44.94633" lon="3.97198">
        <ele>982.262</ele>
        <time>2019-03-25T14:46:11Z</time>
      </trkpt>
      <trkpt lat="44.94605" lon="3.97243">
        <ele>977.983</ele>
        <time>2019-03-25T14:46:31Z</time>
      </trkpt>
      <trkpt lat="44.94584" lon="3.97346">
        <ele>978.641</ele>
        <time>2019-03-25T14:46:51Z</time>
      </trkpt>
      <trkpt lat="44.94592" lon="3.97383">
        <ele>981.019</ele>
        <time>2019-03-25T14:47:11Z</time>
      </trkpt>
      <trkpt lat="44.94596" lon="3.97443">
        <ele>983.731</ele>
        <time>2019-03-25T14:47:31Z</time>
      </trkpt>
      <trkpt lat="44.94611" lon="3.97546">
        <ele>983.571</ele>
        <time>2019-03-25T14:47:51Z</time>
      </trkpt>
      <trkpt lat="44.94601" lon="3.97594">
        <ele>977.292</ele>
        <time>2019-03-25T14:48:11Z</time>
      </trkpt>
      <trkpt lat="44.9462" lon="3.97628">
        <ele>981.446</ele>
        <time>2019-03-25T14:48:31Z</time>
      </trkpt>
      <trkpt lat="44.94637" lon="3.97797">
        <ele>987.988</ele>
        <time>2019-03-25T14:48:51Z</time>
      </trkpt>
      <trkpt lat="44.94614" lon="3.97945">
        <ele>985.916</ele>
        <time>2019-03-25T14:49:11Z</time>
      </trkpt>
      <trkpt lat="44.94614" lon="3.98138">
        <ele>987.608</ele>
        <time>2019-03-25T14:49:31Z</time>
      </trkpt>
      <trkpt lat="44.94629" lon="3.98244">
        <ele>981.437</ele>
        <time>2019-03-25T14:49:51Z</time>
      </trkpt>
      <trkpt lat="44.94665" lon="3.98284">
        <ele>977.158</ele>
        <time>2019-03-25T14:50:11Z</time>
      </trkpt>
      <trkpt lat="44.94667" lon="3.98424">
        <ele>955.379</ele>
        <time>2019-03-25T14:50:31Z</time>
      </trkpt>
      <trkpt lat="44.94678" lon="3.98484">
        <ele>947.397</ele>
        <time>2019-03-25T14:50:51Z</time>
      </trkpt>
      <trkpt lat="44.94663" lon="3.98585">
        <ele>934.565</ele>
        <time>2019-03-25T14:51:11Z</time>
      </trkpt>
      <trkpt lat="44.94691" lon="3.98759">
        <ele>932.087</ele>
        <time>2019-03-25T14:51:31Z</time>
      </trkpt>
      <trkpt lat="44.94659" lon="3.9892">
        <ele>930.937</ele>
        <time>2019-03-25T14:51:51Z</time>
      </trkpt>
      <trkpt lat="44.94646" lon="3.98939">
        <ele>931.298</ele>
        <time>2019-03-25T14:52:11Z</time>
      </trkpt>
      <trkpt lat="44.94644" lon="3.98946">
        <ele>931.653</ele>
        <time>2016-06-07T18:23:53Z</time>
      </trkpt>
      <trkpt lat="44.94487" lon="3.99055">
        <ele>936.904</ele>
        <time>2016-06-07T18:24:13Z</time>
      </trkpt>
      <trkpt lat="44.94403" lon="3.99102">
        <ele>936.014</ele>
        <time>2016-06-07T18:24:33Z</time>
      </trkpt>
      <trkpt lat="44.94352" lon="3.99158">
        <ele>933.508</ele>
        <time>2016-06-07T18:24:53Z</time>
      </trkpt>
      <trkpt lat="44.94302" lon="3.99223">
        <ele>932.878</ele>
        <time>2016-06-07T18:25:13Z</time>
      </trkpt>
      <trkpt lat="44.94146" lon="3.99321">
        <ele>931.759</ele>
        <time>2016-06-07T18:25:33Z</time>
      </trkpt>
      <trkpt lat="44.94098" lon="3.99326">
        <ele>933.38</ele>
        <time>2016-06-07T18:25:53Z</time>
      </trkpt>
      <trkpt lat="44.94068" lon="3.9935">
        <ele>933.698</ele>
        <time>2016-06-07T18:26:13Z</time>
      </trkpt>
      <trkpt lat="44.94009" lon="3.994">
        <ele>933.096</ele>
        <time>2016-06-07T18:26:33Z</time>
      </trkpt>
      <trkpt lat="44.93969" lon="3.99405">
        <ele>931.248</ele>
        <time>2016-06-07T18:26:53Z</time>
      </trkpt>
      <trkpt lat="44.93942" lon="3.99422">
        <ele>932.628</ele>
        <time>2016-06-07T18:27:13Z</time>
      </trkpt>
      <trkpt lat="44.93924" lon="3.99446">
        <ele>934.799</ele>
        <time>2016-06-07T18:27:33Z</time>
      </trkpt>
      <trkpt lat="44.93899" lon="3.99485">
        <ele>938.091</ele>
        <time>2016-06-07T18:27:53Z</time>
      </trkpt>
      <trkpt lat="44.93887" lon="3.99527">
        <ele>941.981</ele>
        <time>2016-06-07T18:28:13Z</time>
      </trkpt>
      <trkpt lat="44.93833" lon="3.99548">
        <ele>942.919</ele>
        <time>2016-06-07T18:28:33Z</time>
      </trkpt>
      <trkpt lat="44.93768" lon="3.99553">
        <ele>945.408</ele>
        <time>2016-06-07T18:28:53Z</time>
      </trkpt>
      <trkpt lat="44.93738" lon="3.99569">
        <ele>945.342</ele>
        <time>2016-06-07T18:29:13Z</time>
      </trkpt>
      <trkpt lat="44.93681" lon="3.99578">
        <ele>941.143</ele>
        <time>2016-06-07T18:29:33Z</time>
      </trkpt>
      <trkpt lat="44.93631" lon="3.99609">
        <ele>940.374</ele>
        <time>2016-06-07T18:29:53Z</time>
      </trkpt>
      <trkpt lat="44.93568" lon="3.99633">
        <ele>937.552</ele>
        <time>2016-06-07T18:30:13Z</time>
      </trkpt>
      <trkpt lat="44.93533" lon="3.99652">
        <ele>934.8</ele>
      </trkpt>
      <trkpt lat="44.93486" lon="3.99718">
        <ele>934</ele>
      </trkpt>
      <trkpt lat="44.93427" lon="3.9984">
        <ele>938</ele>
      </trkpt>
      <trkpt lat="44.93304" lon="3.99994">
        <ele>929</ele>
      </trkpt>
    </trkseg>
  </trk>
</gpx>